DW6345 Murcia ES current weather conditions

sailwx.info

Wind from 024 at 6 knots gusting 11

Air temperature 14.4° C
Dewpoint 11.9° C

Last reported at 2017-Mar-28 20:54 UTC.
Time now 2017-Mar-28 21:25 UTC

Location: N 37°60' W 001°06'.
View on Google Maps.

See reports from other nearby stations

  
Tides and Currents Weather Stations Pressure Air Temp Water Temp Dewpoint Dewpoint Depression Visibility Wind Speed Wind Dir Waves Ship Positions
date/time (UTC)wind fromknots sea level pressurealtimeterstation pressurevisibilityair tempwater tempwave heightnotes
2017-Mar-28 20:54 024 6 gusting 11 14.4
2017-Mar-28 20:49 028 6 gusting 8 14.4
2017-Mar-28 20:44 030 6 gusting 7 14.4
2017-Mar-28 20:39 024 6 gusting 8 14.4
2017-Mar-28 20:34 027 6 gusting 10 14.4
2017-Mar-28 20:29 026 6 gusting 10 14.4
2017-Mar-28 20:24 026 6 gusting 8 14.4
2017-Mar-28 20:19 030 6 gusting 8 14.4
2017-Mar-28 20:14 030 6 gusting 11 15.0
2017-Mar-28 20:09 025 6 gusting 10 15.0
2017-Mar-28 20:04 041 6 gusting 11 15.0
2017-Mar-28 19:59 024 6 gusting 13 15.0
2017-Mar-28 19:54 031 6 gusting 12 15.0
2017-Mar-28 19:49 032 6 gusting 11 15.6
2017-Mar-28 19:44 035 6 gusting 11 15.6
2017-Mar-28 19:39 031 6 gusting 11 15.6
2017-Mar-28 19:34 034 5 gusting 11 15.6
2017-Mar-28 19:29 037 5 gusting 11 15.6
2017-Mar-28 19:24 033 6 gusting 8 16.1
2017-Mar-28 19:19 040 6 gusting 8 16.1
2017-Mar-28 19:14 048 6 gusting 8 16.1
2017-Mar-28 19:09 036 6 gusting 10 16.1
2017-Mar-28 19:04 039 6 gusting 12 16.7
2017-Mar-28 18:59 042 6 gusting 13 16.7
2017-Mar-28 18:54 034 6 gusting 11 16.7
2017-Mar-28 18:49 045 6 gusting 11 16.7
2017-Mar-28 18:44 038 7 gusting 12 16.7
2017-Mar-28 18:39 042 7 gusting 14 17.2
2017-Mar-28 18:34 028 6 gusting 13 17.2
2017-Mar-28 18:29 035 6 gusting 13 17.8
2017-Mar-28 18:24 028 6 gusting 10 17.8
2017-Mar-28 18:19 032 6 gusting 10 18.3
2017-Mar-28 18:14 042 6 gusting 10 18.3
2017-Mar-28 18:09 033 6 gusting 11 18.9
2017-Mar-28 18:04 046 4 gusting 10 18.9
2017-Mar-28 17:59 038 4 gusting 10 19.4
2017-Mar-28 17:54 032 5 gusting 6 20.0
2017-Mar-28 17:49 037 5 gusting 6 20.0
2017-Mar-28 17:44 055 6 gusting 7 20.0
2017-Mar-28 17:39 097 6 gusting 10 20.6
2017-Mar-28 17:34 115 6 gusting 11 20.6
2017-Mar-28 17:29 110 6 gusting 10 20.6
2017-Mar-28 17:24 104 6 gusting 10 21.1
2017-Mar-28 17:19 125 6 gusting 10 20.6
2017-Mar-28 17:14 114 6 gusting 12 21.1
2017-Mar-28 17:09 107 6 gusting 10 20.6
2017-Mar-28 17:04 125 6 gusting 13 21.1
2017-Mar-28 16:59 108 6 gusting 13 21.1
2017-Mar-28 16:54 107 7 gusting 10 21.1
2017-Mar-28 16:49 120 7 gusting 13 21.1
2017-Mar-28 16:44 102 7 gusting 13 21.1
2017-Mar-28 16:39 115 7 gusting 13 21.7
2017-Mar-28 16:34 108 6 gusting 13 21.7
2017-Mar-28 16:29 120 6 gusting 12 22.2
2017-Mar-28 16:24 114 7 gusting 13 22.2
2017-Mar-28 16:19 125 7 gusting 13 21.7
2017-Mar-28 16:14 119 10 gusting 14 22.2
2017-Mar-28 16:09 128 10 gusting 14 22.2
2017-Mar-28 16:04 140 7 gusting 14 22.2
2017-Mar-28 15:59 140 7 gusting 13 22.2
2017-Mar-28 15:54 124 7 gusting 13 22.2
2017-Mar-28 15:49 127 7 gusting 13 22.2
2017-Mar-28 15:44 133 7 gusting 13 22.2
2017-Mar-28 15:39 118 7 gusting 13 22.2
2017-Mar-28 15:34 107 8 gusting 13 21.7
2017-Mar-28 15:24 148 6 gusting 17 22.2
2017-Mar-28 15:19 134 6 gusting 15 22.2
2017-Mar-28 15:14 119 6 gusting 18 22.2
2017-Mar-28 15:09 133 6 gusting 13 22.8
2017-Mar-28 15:04 144 8 gusting 12 22.8
2017-Mar-28 14:59 158 8 gusting 12 22.8
2017-Mar-28 14:54 129 8 gusting 14 22.2
2017-Mar-28 14:49 121 8 gusting 14 22.8
2017-Mar-28 14:44 155 7 gusting 18 22.8
2017-Mar-28 14:39 125 7 gusting 15 22.8
2017-Mar-28 14:34 139 6 gusting 14 22.8
2017-Mar-28 14:29 118 6 gusting 13 22.8
2017-Mar-28 14:24 113 7 gusting 14 22.8
2017-Mar-28 14:19 189 7 gusting 10 22.2
2017-Mar-28 14:14 041 6 gusting 15 22.2
2017-Mar-28 14:09 104 6 gusting 15 22.2
2017-Mar-28 14:04 114 5 gusting 13 22.2
2017-Mar-28 13:59 114 5 gusting 12 23.3
2017-Mar-28 13:54 199 5 gusting 11 23.3
2017-Mar-28 13:49 249 5 gusting 10 22.8
2017-Mar-28 13:44 200 4 gusting 14 22.8
2017-Mar-28 13:39 031 4 gusting 8 22.2
2017-Mar-28 13:34 352 5 gusting 6 22.2
2017-Mar-28 13:29 242 5 gusting 8 22.2
2017-Mar-28 13:24 259 5 gusting 12 22.8
2017-Mar-28 13:19 246 5 gusting 7 22.8
2017-Mar-28 13:14 264 5 gusting 12 22.8
2017-Mar-28 13:09 155 5 gusting 10 22.8
2017-Mar-28 13:04 225 5 gusting 7 22.8
2017-Mar-28 12:59 198 5 gusting 7 22.2
2017-Mar-28 12:54 203 5 gusting 8 22.2
2017-Mar-28 12:49 222 5 gusting 7 22.2
2017-Mar-28 12:44 222 5 gusting 8 22.2
2017-Mar-28 12:39 225 5 gusting 12 22.2
2017-Mar-28 12:34 290 2 gusting 8 22.2
2017-Mar-28 12:29 210 2 gusting 8 22.2
2017-Mar-28 12:24 135 4 gusting 6 22.8
2017-Mar-28 12:19 273 4 gusting 6 22.2
2017-Mar-28 12:14 119 4 gusting 6 22.2
2017-Mar-28 12:09 268 4 gusting 6 21.7
2017-Mar-28 12:04 171 2 gusting 6 21.7
2017-Mar-28 11:59 190 2 gusting 8 21.7
2017-Mar-28 11:54 298 4 gusting 6 21.7
2017-Mar-28 11:49 325 4 gusting 6 21.1
2017-Mar-28 11:44 250 4 gusting 6 21.1
2017-Mar-28 11:39 341 4 gusting 10 21.1
2017-Mar-28 11:34 267 4 gusting 6 21.1
2017-Mar-28 11:29 285 4 gusting 7 21.1
2017-Mar-28 11:24 217 4 gusting 6 21.1
2017-Mar-28 11:19 263 4 gusting 6 21.1
2017-Mar-28 11:14 281 4 gusting 6 20.6
2017-Mar-28 11:09 241 4 gusting 8 20.6
2017-Mar-28 11:04 253 4 gusting 6 20.6
2017-Mar-28 10:59 291 4 gusting 6 20.6
2017-Mar-28 10:54 223 4 gusting 7 20.6
2017-Mar-28 10:49 168 4 gusting 6 20.6
2017-Mar-28 10:44 251 5 gusting 6 20.0
2017-Mar-28 10:39 201 5 gusting 7 20.0
2017-Mar-28 10:34 236 4 gusting 7 20.0
2017-Mar-28 10:29 229 4 gusting 8 19.4
2017-Mar-28 10:24 224 4 gusting 6 19.4
2017-Mar-28 10:19 198 4 gusting 8 19.4
2017-Mar-28 10:14 237 5 gusting 7 19.4
2017-Mar-28 10:09 320 5 gusting 10 18.9
2017-Mar-28 10:04 287 5 gusting 10 18.9
2017-Mar-28 09:59 247 5 gusting 7 18.9
2017-Mar-28 09:54 248 5 gusting 8 18.9
2017-Mar-28 09:49 213 5 gusting 8 18.3
2017-Mar-28 09:44 221 5 gusting 10 18.3
2017-Mar-28 09:39 235 5 gusting 7 18.3
2017-Mar-28 09:34 259 6 gusting 10 18.3
2017-Mar-28 09:29 228 6 gusting 6 17.8
2017-Mar-28 09:24 232 5 gusting 10 17.8
2017-Mar-28 09:19 224 5 gusting 8 17.8
2017-Mar-28 09:14 215 4 gusting 7 17.2
2017-Mar-28 09:09 251 4 gusting 11 17.2
2017-Mar-28 09:04 213 4 gusting 8 17.2
2017-Mar-28 08:59 219 4 gusting 8 17.2
2017-Mar-28 08:54 193 4 gusting 6 16.7
2017-Mar-28 08:49 231 4 gusting 6 16.7
2017-Mar-28 08:44 236 4 gusting 6 16.1
2017-Mar-28 08:39 258 4 gusting 6 16.1
2017-Mar-28 08:34 199 5 gusting 7 16.1
2017-Mar-28 08:29 184 5 gusting 5 16.1
2017-Mar-28 08:24 180 5 gusting 6 15.6
2017-Mar-28 08:19 206 5 gusting 7 15.6
2017-Mar-28 08:14 197 4 gusting 6 15.6
2017-Mar-28 08:09 181 4 gusting 6 15.0
2017-Mar-28 08:04 192 1 gusting 6 15.0
2017-Mar-28 07:59 172 1 gusting 5 14.4
2017-Mar-28 07:54 199 4 gusting 5 14.4
2017-Mar-28 07:49 169 4 gusting 6 13.9
2017-Mar-28 07:44 179 4 gusting 6 13.9
2017-Mar-28 07:39 185 4 gusting 6 13.3
2017-Mar-28 07:34 164 2 gusting 6 13.3
2017-Mar-28 07:29 161 2 gusting 5 12.8
2017-Mar-28 07:24 169 2 gusting 5 12.2
2017-Mar-28 07:19 148 2 gusting 4 12.2
2017-Mar-28 07:14 163 4 gusting 4 11.7
2017-Mar-28 07:09 175 4 gusting 5 11.7
2017-Mar-28 07:04 144 4 gusting 5 11.7
2017-Mar-28 06:59 148 4 gusting 5 11.1
2017-Mar-28 06:54 169 1 gusting 5 11.1
2017-Mar-28 06:49 152 1 gusting 4 11.1
2017-Mar-28 06:44 147 1 gusting 4 11.1
2017-Mar-28 06:39 154 1 gusting 4 11.1
2017-Mar-28 06:34 172 2 gusting 4 11.1
2017-Mar-28 06:29 131 2 gusting 4 11.1
2017-Mar-28 06:24 149 1 gusting 4 11.1
2017-Mar-28 06:19 161 1 gusting 4 11.1
2017-Mar-28 06:14 134 1 gusting 4 11.1
2017-Mar-28 06:09 155 1 gusting 4 11.7
2017-Mar-28 06:04 138 1 gusting 2 11.7
2017-Mar-28 05:59 246 1 gusting 1 11.7
2017-Mar-28 05:54 247 2 gusting 4 11.1
2017-Mar-28 05:49 209 2 gusting 4 11.1
2017-Mar-28 05:44 199 4 gusting 4 11.1
2017-Mar-28 05:39 204 4 gusting 5 11.1
2017-Mar-28 05:34 206 4 gusting 5 10.6
2017-Mar-28 05:29 187 4 gusting 4 10.6
2017-Mar-28 05:24 183 4 gusting 5 10.6
2017-Mar-28 05:19 158 4 gusting 5 10.6
2017-Mar-28 05:14 162 2 gusting 6 10.6
2017-Mar-28 05:09 154 2 gusting 5 10.6
2017-Mar-28 05:04 158 2 gusting 4 10.6
2017-Mar-28 04:59 163 2 gusting 5 10.6
2017-Mar-28 04:54 163 1 gusting 4 10.6
2017-Mar-28 04:49 159 1 gusting 4 10.6
2017-Mar-28 04:44 130 1 gusting 4 11.1
2017-Mar-28 04:39 136 1 gusting 4 11.1
2017-Mar-28 04:34 149 1 gusting 4 11.1
2017-Mar-28 04:29 152 1 gusting 4 11.7
2017-Mar-28 04:24 153 1 gusting 1 11.7
2017-Mar-28 04:19 153 1 gusting 1 11.7
2017-Mar-28 04:14 158 1 gusting 1 11.7
2017-Mar-28 04:09 180 1 gusting 2 11.7
2017-Mar-28 04:04 207 1 gusting 4 11.7
2017-Mar-28 03:59 224 1 gusting 2 11.7
2017-Mar-28 03:54 224 1 gusting 1 11.7
2017-Mar-28 03:49 224 1 gusting 4 11.7
2017-Mar-28 03:44 164 2 gusting 4 11.7
2017-Mar-28 03:39 131 2 gusting 4 11.7
2017-Mar-28 03:34 152 1 gusting 4 12.2
2017-Mar-28 03:29 142 1 gusting 4 12.2
2017-Mar-28 03:24 142 1 gusting 4 12.8
2017-Mar-28 03:19 204 1 gusting 4 12.8
2017-Mar-28 03:14 217 1 gusting 2 12.8
2017-Mar-28 03:09 231 1 gusting 4 12.8
2017-Mar-28 03:04 232 4 gusting 4 12.8
2017-Mar-28 02:59 228 4 gusting 4 12.8
2017-Mar-28 02:54 232 2 gusting 5 12.8
2017-Mar-28 02:49 238 2 gusting 4 12.8
2017-Mar-28 02:44 231 2 gusting 5 12.8
2017-Mar-28 02:39 223 2 gusting 4 12.8
2017-Mar-28 02:34 213 1 gusting 4 12.8
2017-Mar-28 02:29 206 1 gusting 4 12.2
2017-Mar-28 02:24 220 1 gusting 2 12.2
2017-Mar-28 02:14 187 2 gusting 4 12.2
2017-Mar-28 02:09 201 2 gusting 4 12.2
2017-Mar-28 02:04 148 1 gusting 4 12.2
2017-Mar-28 01:59 150 1 gusting 4 12.8
2017-Mar-28 01:54 126 1 gusting 2 13.3
2017-Mar-28 01:49 143 1 gusting 2 13.3
2017-Mar-28 01:44 193 4 gusting 1 13.3
2017-Mar-28 01:39 193 4 gusting 4 13.3
2017-Mar-28 01:34 201 1 gusting 6 13.3
2017-Mar-28 01:29 181 1 gusting 5 13.3
2017-Mar-28 01:24 162 1 gusting 4 13.3
2017-Mar-28 01:19 150 1 gusting 4 13.3
2017-Mar-28 01:14 208 1 gusting 4 13.3
2017-Mar-28 01:09 228 1 gusting 2 13.3
2017-Mar-28 01:04 282 2 gusting 4 13.3
2017-Mar-28 00:59 277 2 gusting 4 13.9
2017-Mar-28 00:54 272 2 gusting 5 13.9
2017-Mar-28 00:49 237 2 gusting 5 13.9
2017-Mar-28 00:44 223 2 gusting 5 13.9
2017-Mar-28 00:39 200 2 gusting 5 13.9
2017-Mar-28 00:34 197 1 gusting 4 13.3
2017-Mar-28 00:29 242 1 gusting 2 13.3
2017-Mar-28 00:24 273 1 gusting 2 13.3
2017-Mar-28 00:19 247 1 gusting 2 13.9
2017-Mar-28 00:14 253 1 gusting 2 13.9
2017-Mar-28 00:09 258 1 gusting 2 13.9
2017-Mar-28 00:04 258 1 gusting 2 13.9
2017-Mar-27 23:59 201 1 gusting 2 13.9
2017-Mar-27 23:54 193 1 gusting 5 13.3
2017-Mar-27 23:49 253 1 gusting 5 13.9
2017-Mar-27 23:44 130 2 gusting 2 13.9
2017-Mar-27 23:39 135 2 gusting 5 13.9
2017-Mar-27 23:34 110 2 gusting 5 13.9
2017-Mar-27 23:29 102 2 gusting 5 13.9
2017-Mar-27 23:24 126 1 gusting 5 13.9
2017-Mar-27 23:19 131 1 gusting 5 14.4
2017-Mar-27 23:14 140 1 gusting 5 14.4
2017-Mar-27 23:09 112 1 gusting 5 14.4
2017-Mar-27 23:04 101 1 gusting 2 14.4
2017-Mar-27 22:59 286 1 gusting 1 15.0
2017-Mar-27 22:54 286 1 gusting 1 15.0
2017-Mar-27 22:49 286 1 gusting 1 15.0
2017-Mar-27 22:44 286 1 gusting 1 15.0
2017-Mar-27 22:39 286 1 gusting 1 15.0
2017-Mar-27 22:34 286 1 gusting 1 15.0
2017-Mar-27 22:29 286 1 gusting 1 15.0
2017-Mar-27 22:24 286 1 gusting 1 15.0
2017-Mar-27 22:19 286 1 gusting 1 15.0
2017-Mar-27 22:14 286 1 gusting 1 15.0
2017-Mar-27 22:09 286 1 gusting 1 15.0
2017-Mar-27 22:04 286 1 gusting 2 15.0
2017-Mar-27 21:59 286 1 gusting 4 15.0
2017-Mar-27 21:54 305 1 gusting 4 15.0
2017-Mar-27 21:49 339 1 gusting 4 15.0
2017-Mar-27 21:44 324 1 gusting 4 15.6
2017-Mar-27 21:39 328 1 gusting 4 15.6
2017-Mar-27 21:34 332 1 gusting 2 15.6
2017-Mar-27 21:29 014 1 gusting 4 15.6
2017-Mar-27 21:24 039 1 gusting 4 15.6
2017-Mar-27 21:19 018 1 gusting 4 16.1
2017-Mar-27 21:14 328 1 gusting 2 16.1
2017-Mar-27 21:09 022 1 gusting 1 16.1
2017-Mar-27 21:04 024 1 gusting 1 16.1
2017-Mar-27 21:00 038 1 gusting 2 16.1
2017-Mar-27 20:54 358 1 gusting 2 16.1
2017-Mar-27 20:49 043 1 gusting 4 16.1
2017-Mar-27 20:44 042 1 gusting 4 16.1
2017-Mar-27 20:39 040 1 gusting 4 16.1
2017-Mar-27 20:34 033 0 gusting 2 16.7
2017-Mar-27 20:29 033 0 gusting 1 16.7
2017-Mar-27 20:24 033 0 gusting 1 16.7
2017-Mar-27 20:19 033 0 gusting 1 16.7
2017-Mar-27 20:14 035 0 gusting 1 16.7
2017-Mar-27 20:09 035 0 gusting 1 16.7
2017-Mar-27 20:04 036 1 gusting 1 16.7
2017-Mar-27 19:59 036 1 gusting 2 16.7
2017-Mar-27 19:54 037 1 gusting 4 16.7
2017-Mar-27 19:49 023 1 gusting 4 16.7
2017-Mar-27 19:44 337 1 gusting 2 16.7
2017-Mar-27 19:39 324 1 gusting 2 16.7
2017-Mar-27 19:34 277 1 gusting 2 16.7
2017-Mar-27 19:29 331 1 gusting 4 17.2
2017-Mar-27 19:24 023 1 gusting 5 17.2
2017-Mar-27 19:19 169 1 gusting 4 17.8
2017-Mar-27 19:14 219 1 gusting 2 17.8
2017-Mar-27 19:09 213 1 gusting 2 17.8
2017-Mar-27 19:04 183 2 gusting 4 17.8
2017-Mar-27 18:59 156 2 gusting 4 17.8
2017-Mar-27 18:54 132 4 gusting 6 17.8
2017-Mar-27 18:49 166 4 gusting 6 17.8
2017-Mar-27 18:44 155 5 gusting 6 17.8
2017-Mar-27 18:39 170 5 gusting 6 17.8
2017-Mar-27 18:34 166 5 gusting 6 17.8
2017-Mar-27 18:29 163 5 gusting 10 18.3
2017-Mar-27 18:24 153 6 gusting 8 18.3
2017-Mar-27 18:19 154 6 gusting 8 18.3
2017-Mar-27 18:14 160 6 gusting 10 18.3
2017-Mar-27 18:09 166 6 gusting 11 18.3
2017-Mar-27 18:04 156 7 gusting 10 18.9
2017-Mar-27 18:00 186 7 gusting 8 18.9
2017-Mar-27 17:54 171 7 gusting 13 18.9
2017-Mar-27 17:49 173 7 gusting 12 18.9
2017-Mar-27 17:44 166 11 gusting 13 19.4
2017-Mar-27 17:39 155 11 gusting 13 19.4
2017-Mar-27 17:34 167 10 gusting 15 19.4
2017-Mar-27 17:29 155 10 gusting 18 19.4
2017-Mar-27 17:24 167 11 gusting 15 19.4
2017-Mar-27 17:19 161 11 gusting 14 19.4
2017-Mar-27 17:14 159 8 gusting 19 20.0
2017-Mar-27 17:09 157 8 gusting 15 20.6
2017-Mar-27 17:04 155 8 gusting 15 20.6
2017-Mar-27 17:00 157 8 gusting 13 20.6
2017-Mar-27 16:54 168 7 gusting 13 20.6
2017-Mar-27 16:49 158 7 gusting 13 21.1
2017-Mar-27 16:44 155 5 gusting 13 21.1
2017-Mar-27 16:39 171 5 gusting 12 21.7
2017-Mar-27 16:34 174 5 gusting 8 21.7
2017-Mar-27 16:29 101 5 gusting 7 21.1
2017-Mar-27 16:24 115 4 gusting 6 21.1
2017-Mar-27 16:19 112 4 gusting 6 21.7
2017-Mar-27 16:14 167 2 gusting 5 21.7
2017-Mar-27 16:09 150 2 gusting 6 21.7
2017-Mar-27 16:04 130 4 gusting 6 21.7
2017-Mar-27 15:59 260 4 gusting 6 21.7
2017-Mar-27 15:54 112 4 gusting 6 21.7
2017-Mar-27 15:49 123 4 gusting 6 21.1
2017-Mar-27 15:44 111 5 gusting 7 21.1
2017-Mar-27 15:39 116 5 gusting 8 21.1
2017-Mar-27 15:34 143 5 gusting 8 21.1
2017-Mar-27 15:29 157 5 gusting 11 21.7
2017-Mar-27 15:24 149 4 gusting 8 21.7
2017-Mar-27 15:19 123 4 gusting 8 21.7
2017-Mar-27 15:14 113 4 gusting 7 21.7
2017-Mar-27 15:09 113 4 gusting 5 21.7
2017-Mar-27 15:04 034 5 gusting 5 21.7
2017-Mar-27 15:00 312 5 gusting 8 21.7
2017-Mar-27 14:49 305 5 gusting 8 21.7
2017-Mar-27 14:44 320 2 gusting 7 21.7
2017-Mar-27 14:39 310 2 gusting 7 21.7
2017-Mar-27 14:34 029 6 gusting 5 21.7
2017-Mar-27 14:29 003 6 gusting 8 21.7
2017-Mar-27 14:24 200 4 gusting 11 21.7
2017-Mar-27 14:19 205 4 gusting 11 21.7
2017-Mar-27 14:15 189 4 gusting 6 22.2
2017-Mar-27 14:09 250 4 gusting 5 21.7
2017-Mar-27 14:04 294 5 gusting 6 21.7
2017-Mar-27 14:00 231 5 gusting 7 21.7
2017-Mar-27 13:54 263 6 gusting 10 21.7
2017-Mar-27 13:49 297 6 gusting 10 21.7
2017-Mar-27 13:44 225 4 gusting 11 21.1
2017-Mar-27 13:39 245 4 gusting 11 21.1
2017-Mar-27 13:34 263 4 gusting 6 20.6
2017-Mar-27 13:29 322 4 gusting 6 21.1
2017-Mar-27 13:24 357 6 gusting 8 21.1
2017-Mar-27 13:20 276 6 gusting 10 21.1
2017-Mar-27 13:14 306 5 gusting 11 20.6
2017-Mar-27 13:10 297 5 gusting 12 20.6
2017-Mar-27 13:04 284 6 gusting 8 20.6
2017-Mar-27 13:00 251 6 gusting 10 20.6
2017-Mar-27 12:54 322 2 gusting 11 21.1
2017-Mar-27 12:49 321 2 gusting 8 21.1
2017-Mar-27 12:44 014 5 gusting 6 20.6
2017-Mar-27 12:39 233 5 gusting 8 20.6
2017-Mar-27 12:34 350 5 gusting 8 20.0
2017-Mar-27 12:30 281 5 gusting 11 20.0
2017-Mar-27 12:24 308 6 gusting 11 20.6
2017-Mar-27 12:20 306 6 gusting 10 20.0
2017-Mar-27 12:14 287 6 gusting 11 20.0
2017-Mar-27 12:10 302 6 gusting 11 20.6
2017-Mar-27 12:04 283 4 gusting 10 20.6
2017-Mar-27 12:00 229 4 gusting 11 20.6
2017-Mar-27 11:54 330 4 gusting 6 20.0
2017-Mar-27 11:49 269 4 gusting 6 20.0
2017-Mar-27 11:44 255 5 gusting 7 19.4
2017-Mar-27 11:39 233 5 gusting 7 19.4
2017-Mar-27 11:34 294 5 gusting 10 19.4
2017-Mar-27 11:29 321 5 gusting 10 19.4
2017-Mar-27 11:25 278 5 gusting 10 19.4
2017-Mar-27 11:19 290 5 gusting 11 19.4
2017-Mar-27 11:15 201 5 gusting 12 18.9
2017-Mar-27 11:10 263 5 gusting 12 18.9
2017-Mar-27 11:04 265 6 gusting 11 18.9
2017-Mar-27 11:00 258 6 gusting 10 18.9
2017-Mar-27 10:54 295 6 gusting 13 18.9
2017-Mar-27 10:50 308 6 gusting 14 18.3
2017-Mar-27 10:44 286 7 gusting 11 18.3
2017-Mar-27 10:40 257 7 gusting 13 18.3
2017-Mar-27 10:35 283 6 gusting 13 18.3
2017-Mar-27 10:30 287 6 gusting 11 18.3
2017-Mar-27 10:24 282 7 gusting 12 18.3
2017-Mar-27 10:19 306 7 gusting 12 17.8
2017-Mar-27 10:14 292 6 gusting 13 17.8
2017-Mar-27 10:10 332 6 gusting 13 17.8
2017-Mar-27 10:04 278 4 gusting 11 17.8
2017-Mar-27 10:00 305 4 gusting 13 17.8
2017-Mar-27 09:54 323 2 gusting 7 17.8
2017-Mar-27 09:50 308 2 gusting 7 17.8
2017-Mar-27 09:44 330 1 gusting 6 17.8
2017-Mar-27 09:40 282 1 gusting 6 17.8
2017-Mar-27 09:35 198 1 gusting 5 17.2
2017-Mar-27 09:30 246 1 gusting 4 17.2
2017-Mar-27 09:24 162 1 gusting 4 17.2
2017-Mar-27 09:20 113 1 gusting 5 16.7
2017-Mar-27 09:15 236 4 gusting 5 16.7
2017-Mar-27 09:10 256 4 gusting 5 16.7
2017-Mar-27 09:04 239 4 gusting 7 16.1
2017-Mar-27 09:00 254 4 gusting 6 16.1
2017-Mar-27 08:54 239 5 gusting 6 16.1
2017-Mar-27 08:49 274 5 gusting 6 15.6
2017-Mar-27 08:44 282 4 gusting 8 15.6
2017-Mar-27 08:40 235 4 gusting 6 15.6
2017-Mar-27 08:35 251 5 gusting 6 15.6
2017-Mar-27 08:30 283 5 gusting 6 15.0
2017-Mar-27 08:24 257 5 gusting 7 15.0
2017-Mar-27 08:20 276 5 gusting 8 15.0
2017-Mar-27 08:14 294 4 gusting 7 15.0
2017-Mar-27 08:09 274 4 gusting 8 15.0
2017-Mar-27 08:04 292 4 gusting 6 15.0
2017-Mar-27 08:00 286 4 gusting 6 14.4
2017-Mar-27 07:55 253 4 gusting 6 14.4
2017-Mar-27 07:50 272 4 gusting 10 14.4
2017-Mar-27 07:44 253 2 gusting 10 14.4
2017-Mar-27 07:40 243 2 gusting 6 13.9
2017-Mar-27 07:35 191 2 gusting 6 13.9
2017-Mar-27 07:30 165 2 gusting 4 13.9
2017-Mar-27 07:24 167 2 gusting 6 13.9
2017-Mar-27 07:20 171 2 gusting 4 13.3
2017-Mar-27 07:14 195 4 gusting 5 13.3
2017-Mar-27 07:10 207 4 gusting 5 13.3
2017-Mar-27 07:04 203 2 gusting 6 13.3
2017-Mar-27 07:00 197 2 gusting 6 13.3
2017-Mar-27 06:54 212 2 gusting 5 12.8
2017-Mar-27 06:50 191 2 gusting 5 12.8
2017-Mar-27 06:44 169 4 gusting 5 12.8
2017-Mar-27 06:40 167 4 gusting 5 12.2
2017-Mar-27 06:35 191 4 gusting 6 12.2
2017-Mar-27 06:30 190 4 gusting 6 12.2
2017-Mar-27 06:25 180 5 gusting 6 11.7
2017-Mar-27 06:20 196 5 gusting 8 11.7
2017-Mar-27 06:15 199 5 gusting 7 11.7
2017-Mar-27 06:10 192 5 gusting 6 11.1
2017-Mar-27 06:04 176 4 gusting 6 11.1
2017-Mar-27 06:00 162 4 gusting 7 11.1
2017-Mar-27 05:55 160 2 gusting 6 11.7
2017-Mar-27 05:50 136 2 gusting 6 12.2
2017-Mar-27 05:45 161 2 gusting 5 12.2
2017-Mar-27 05:40 207 2 gusting 5 11.7
2017-Mar-27 05:34 211 4 gusting 5 11.7
2017-Mar-27 05:30 206 4 gusting 6 11.7
2017-Mar-27 05:25 230 4 gusting 5 11.7
2017-Mar-27 05:20 262 4 gusting 5 11.7
2017-Mar-27 05:15 233 4 gusting 6 11.7
2017-Mar-27 05:10 250 4 gusting 6 11.7
2017-Mar-27 05:05 260 2 gusting 6 11.7
2017-Mar-27 05:00 307 2 gusting 5 11.7
2017-Mar-27 04:55 275 2 gusting 5 12.2
2017-Mar-27 04:50 196 2 gusting 4 12.2
2017-Mar-27 04:45 216 4 gusting 5 12.2
2017-Mar-27 04:40 267 4 gusting 5 12.2
2017-Mar-27 04:35 253 4 gusting 6 12.2
2017-Mar-27 04:30 210 4 gusting 6 12.2
2017-Mar-27 04:25 196 2 gusting 7 12.2
2017-Mar-27 04:20 203 2 gusting 6 12.2
2017-Mar-27 04:15 211 2 gusting 6 12.2
2017-Mar-27 04:10 228 2 gusting 4 12.2
2017-Mar-27 04:04 194 4 gusting 5 12.2
2017-Mar-27 04:00 186 4 gusting 6 12.8
2017-Mar-27 03:55 161 1 gusting 5 12.8
2017-Mar-27 03:50 159 1 gusting 5 12.8
2017-Mar-27 03:45 204 2 gusting 4 12.8
2017-Mar-27 03:40 201 2 gusting 4 12.8
2017-Mar-27 03:35 211 1 gusting 4 13.3
2017-Mar-27 03:30 158 1 gusting 5 13.3
2017-Mar-27 03:25 171 1 gusting 4 13.3
2017-Mar-27 03:20 168 1 gusting 4 13.3
2017-Mar-27 03:15 165 1 gusting 2 12.8
2017-Mar-27 03:10 196 1 gusting 4 12.8
2017-Mar-27 03:05 187 1 gusting 4 12.8
2017-Mar-27 03:00 256 1 gusting 4 12.8
2017-Mar-27 02:55 213 2 gusting 4 12.8
2017-Mar-27 02:50 231 2 gusting 5 13.3
2017-Mar-27 02:45 165 4 gusting 4 13.3
2017-Mar-27 02:40 158 4 gusting 6 13.3
2017-Mar-27 02:35 145 1 gusting 6 13.3
2017-Mar-27 02:30 156 1 gusting 5 13.9
2017-Mar-27 02:25 074 4 gusting 4 13.9
2017-Mar-27 02:20 274 4 gusting 4 13.9
2017-Mar-27 02:15 282 4 gusting 6 13.9
2017-Mar-27 02:10 298 4 gusting 6 13.9
2017-Mar-27 02:05 284 4 gusting 7 13.9
2017-Mar-27 02:00 245 4 gusting 6 13.9
2017-Mar-27 01:55 244 2 gusting 6 13.9
2017-Mar-27 01:50 234 2 gusting 6 13.9
2017-Mar-27 01:45 270 2 gusting 5 13.9
2017-Mar-27 01:40 272 2 gusting 6 13.9
2017-Mar-27 01:35 233 4 gusting 5 13.9
2017-Mar-27 01:30 219 4 gusting 6 13.9
2017-Mar-27 01:25 250 6 gusting 10 13.9
2017-Mar-27 01:20 246 6 gusting 10 13.9
2017-Mar-27 01:15 233 5 gusting 10 13.9
2017-Mar-27 01:10 246 5 gusting 10 13.9
2017-Mar-27 01:05 250 4 gusting 7 13.9
2017-Mar-27 01:00 241 4 gusting 7 13.9
2017-Mar-27 00:55 238 2 gusting 6 13.9
2017-Mar-27 00:50 228 2 gusting 6 13.9
2017-Mar-27 00:45 221 2 gusting 5 13.9
2017-Mar-27 00:40 232 2 gusting 5 13.9
2017-Mar-27 00:35 207 2 gusting 4 13.9
2017-Mar-27 00:30 182 2 gusting 4 13.9
2017-Mar-27 00:25 181 4 gusting 4 13.9
2017-Mar-27 00:20 161 4 gusting 5 13.9
2017-Mar-27 00:15 176 2 gusting 6 13.9
2017-Mar-27 00:10 179 2 gusting 6 13.9
2017-Mar-27 00:05 105 1 gusting 5 13.9
2017-Mar-27 00:00 148 1 gusting 5 13.9
2017-Mar-26 23:55 101 0 gusting 4 13.9
2017-Mar-26 23:50 056 0 gusting 1 13.9
2017-Mar-26 23:45 341 1 gusting 1 13.9
2017-Mar-26 23:40 341 1 gusting 1 13.9
2017-Mar-26 23:35 330 1 gusting 4 13.9
2017-Mar-26 23:30 293 1 gusting 4 13.9
2017-Mar-26 23:25 302 2 gusting 4 13.9
2017-Mar-26 23:20 275 2 gusting 4 13.9
2017-Mar-26 23:15 261 1 gusting 4 13.9
2017-Mar-26 23:10 257 1 gusting 4 13.9
2017-Mar-26 23:05 295 2 gusting 4 13.9
2017-Mar-26 23:00 022 1 gusting 4 14.4
2017-Mar-26 22:55 022 1 gusting 4 14.4
2017-Mar-26 22:50 022 1 gusting 4 14.4
2017-Mar-26 22:45 022 1 gusting 4 14.4
2017-Mar-26 22:40 022 1 gusting 4 14.4
2017-Mar-26 22:35 022 1 gusting 4 14.4
2017-Mar-26 22:30 022 1 gusting 4 14.4
2017-Mar-26 22:25 022 1 gusting 4 14.4
2017-Mar-26 22:20 022 1 gusting 4 14.4
2017-Mar-26 22:15 022 1 gusting 4 14.4
2017-Mar-26 22:10 022 1 gusting 4 14.4
2017-Mar-26 22:05 022 1 gusting 4 14.4
2017-Mar-26 22:00 017 1 gusting 4 14.4
2017-Mar-26 21:55 344 4 gusting 5 14.4
2017-Mar-26 21:50 005 4 gusting 5 14.4
2017-Mar-26 21:45 006 6 gusting 6 14.4
2017-Mar-26 21:40 027 6 gusting 6 14.4
2017-Mar-26 21:35 041 4 gusting 11 14.4
2017-Mar-26 21:30 044 4 gusting 8 14.4
2017-Mar-26 21:25 048 4 gusting 6 14.4
2017-Mar-26 21:20 034 4 gusting 6 14.4
2017-Mar-26 21:15 048 1 gusting 6 14.4
2017-Mar-26 21:10 043 1 gusting 5 14.4
2017-Mar-26 21:05 004 1 gusting 4 14.4
2017-Mar-26 21:00 036 1 gusting 4 14.4